CST,Max TemperatureF,Mean TemperatureF,Min TemperatureF,Max Dew PointF,MeanDew PointF,Min DewpointF,Max Humidity, Mean Humidity, Min Humidity, Max Sea Level PressureIn, Mean Sea Level PressureIn, Min Sea Level PressureIn, Max VisibilityMiles, Mean VisibilityMiles, Min VisibilityMiles, Max Wind SpeedMPH, Mean Wind SpeedMPH, Max Gust SpeedMPH,PrecipitationIn, CloudCover, Events, WindDirDegrees
2012-11-1,52,43,34,42,39,33,100,83,63,30.04,29.99,29.94,10,7,2,15,3,20,0.00,2,,340
2012-11-2,52,42,34,36,32,30,100,67,43,30.10,30.00,29.96,10,10,3,18,5,20,0.00,0,,62
2012-11-3,54,40,27,37,32,26,98,77,50,30.22,30.17,30.10,10,10,7,8,4,,0.00,1,,303
2012-11-4,61,49,38,46,39,35,99,76,44,30.19,30.09,30.00,10,9,4,14,4,16,0.04,6,Rain,219
2012-11-5,44,42,39,44,39,36,100,90,79,30.18,30.11,30.03,10,8,4,22,12,26,0.04,8,,321
2012-11-6,57,44,32,39,34,28,95,68,36,30.09,30.02,29.93,10,10,7,29,14,39,0.00,1,,282
2012-11-7,54,41,28,34,32,27,96,70,44,30.19,30.10,29.99,10,10,10,15,6,20,0.03,0,,187
2012-11-8,65,52,38,38,34,32,84,59,34,29.99,29.90,29.85,10,10,10,18,12,23,0.00,0,,162
2012-11-9,64,49,34,57,43,33,99,80,59,29.88,29.77,29.61,10,10,5,14,3,17,0.00,1,,81
2012-11-10,78,58,37,57,53,36,98,69,41,29.73,29.55,29.45,10,10,2,28,15,39,0.57,2,Rain-Thunderstorm,183
2012-11-11,35,30,24,34,22,15,99,75,49,30.16,29.97,29.73,10,9,2,26,20,34,0.01,3,,303
2012-11-12,40,32,23,25,19,16,90,65,41,30.36,30.26,30.16,10,10,10,25,13,31,0.00,0,,276
2012-11-13,56,38,21,31,24,17,89,57,21,30.36,30.29,30.22,10,10,10,15,4,20,0.00,1,,160
2012-11-14,57,42,28,32,29,25,94,57,31,30.30,30.24,30.16,10,10,10,12,6,16,0.00,0,,182
2012-11-15,59,46,31,36,32,29,91,62,35,30.45,30.30,30.18,10,10,10,12,5,16,0.00,1,,325
2012-11-16,55,39,23,36,31,22,97,74,44,30.46,30.38,30.28,10,10,7,15,3,18,0.00,0,,138
2012-11-17,62,50,39,36,35,32,84,61,36,30.29,30.19,30.12,10,10,10,25,11,31,0.00,0,,147
2012-11-18,62,51,40,40,33,30,68,52,34,30.13,30.07,30.02,10,10,10,17,12,23,0.00,0,,149
2012-11-19,62,50,34,41,37,32,90,69,45,30.13,30.05,29.99,10,10,10,15,9,20,0.00,0,,251
2012-11-20,63,46,30,38,35,29,98,64,35,30.24,30.16,30.11,10,10,10,12,6,17,0.00,0,,190
2012-11-21,72,58,44,47,42,36,77,56,33,30.10,29.96,29.78,10,10,10,21,10,31,0.00,0,,173
2012-11-22,61,48,36,46,39,28,83,64,46,30.24,29.94,29.72,10,10,10,31,13,40,0.00,0,,274
2012-11-23,39,29,19,28,14,10,72,57,37,30.52,30.43,30.25,10,10,10,38,20,48,0.00,1,,312
2012-11-24,46,32,18,27,19,11,81,56,36,30.37,30.06,29.86,10,10,10,18,6,25,0.00,0,,158
2012-11-25,42,38,33,30,29,27,82,71,59,30.16,30.00,29.87,10,10,10,9,5,20,0.00,4,,341
2012-11-26,35,24,14,29,21,10,94,75,57,30.44,30.35,30.16,10,9,2,12,7,17,0.00,5,Snow,353
2012-11-27,44,28,13,29,22,10,94,79,53,30.42,30.27,30.15,10,10,10,16,6,23,0.00,0,,219
2012-11-28,48,34,19,30,25,19,100,74,40,30.36,30.24,30.07,10,9,5,14,5,23,0.00,0,,175
2012-11-29,55,40,24,37,32,22,98,74,46,30.08,29.97,29.91,10,10,7,10,3,,0.00,0,,160
2012-11-30,46,36,27,34,30,26,96,82,62,30.11,30.03,29.94,10,9,5,14,7,,0.00,0,,314